Tracking 35237 objects as of 5-Sep-2026
HD Live streaming from Space Station
objects crossing your sky now

SATCOM 2R

Track SATCOM 2R now!
SATCOM 2R is classified as:


NORAD ID: 14328
Int'l Code: 1983-094A
Launch date: September 8, 1983
Source: United States (US)
Launch site: AIR FORCE EASTERN TEST RANGE (AFETR)
Your satellite tracking list
Your tracking list is empty




NASA's NSSDC Master Catalog

Two Line Element Set (TLE):
1 14328U 83094A   26247.23894458 -.00000215  00000-0  00000+0 0  9994
2 14328  14.2749 345.3336 0012661  84.5438 294.2328  0.99409046156342
Source of the keplerian elements: AFSPC